#�ϑ�����,���ϕ���,���ϕ���,�ő啗��,�ő啗����������,�ő�u�ԕ���,�ő�u�ԕ�����������
#(�N����),(m/s)   ,(16����),(m/s)   ,(16����)        ,(m/s)       ,(16����)            
2015/4/20 0:01,3.2,3,3.2,3,3.7,4
2015/4/20 0:02,3.2,3,3.2,3,3.9,3
2015/4/20 0:03,3.2,3,3.2,3,5.5,3
2015/4/20 0:04,3.2,3,3.2,3,4.9,3
2015/4/20 0:05,3.2,3,3.2,3,5.6,3
2015/4/20 0:06,3.2,3,3.3,3,6,3
2015/4/20 0:07,3.3,3,3.3,3,6,3
2015/4/20 0:08,3.4,3,3.4,3,4.7,3
2015/4/20 0:09,3.3,3,3.4,3,4.3,2
2015/4/20 0:10,3.3,3,3.3,3,4.3,3
2015/4/20 0:11,3.3,3,3.4,3,4.4,2
2015/4/20 0:12,3.3,3,3.3,3,4.3,2
2015/4/20 0:13,3.2,3,3.3,3,3.8,3
2015/4/20 0:14,3.2,3,3.2,3,4.5,2
2015/4/20 0:15,3.1,3,3.1,3,4.8,3
2015/4/20 0:16,3,3,3.1,3,5,3
2015/4/20 0:17,3,3,3,3,5.4,3
2015/4/20 0:18,2.9,3,3,3,4.7,3
2015/4/20 0:19,3,3,3,3,4.8,4
2015/4/20 0:20,3,2,3.1,3,5.1,3
2015/4/20 0:21,2.9,2,3,3,4.2,2
2015/4/20 0:22,3,3,3,3,4.8,3
2015/4/20 0:23,3.1,3,3.1,3,4.7,3
2015/4/20 0:24,3.1,3,3.1,3,4.9,3
2015/4/20 0:25,3.2,3,3.2,3,5.6,3
2015/4/20 0:26,3.1,3,3.2,3,4.1,3
2015/4/20 0:27,2.9,3,3.1,3,2.6,2
2015/4/20 0:28,2.9,3,2.9,3,3.7,3
2015/4/20 0:29,2.8,3,2.9,3,3.8,4
2015/4/20 0:30,2.8,3,2.8,3,3.9,4
2015/4/20 0:31,2.8,3,2.8,3,4.3,2
2015/4/20 0:32,2.9,3,2.9,3,5.7,3
2015/4/20 0:33,2.9,3,2.9,3,5,4
2015/4/20 0:34,2.9,3,2.9,3,5,3
2015/4/20 0:35,2.8,3,2.9,3,4.8,3
2015/4/20 0:36,2.8,3,2.8,3,3.7,3
2015/4/20 0:37,2.8,3,2.8,3,4.2,3
2015/4/20 0:38,2.9,3,2.9,3,3.9,3
2015/4/20 0:39,3,3,3,3,4.4,3
2015/4/20 0:40,3.1,3,3.1,3,5.5,3
2015/4/20 0:41,3.1,3,3.1,3,5.4,3
2015/4/20 0:42,3.1,3,3.2,3,5.6,5
2015/4/20 0:43,3.1,3,3.1,3,4.7,3
2015/4/20 0:44,3,3,3,3,4.8,3
2015/4/20 0:45,3.1,3,3.1,3,4.8,5
2015/4/20 0:46,3.1,3,3.1,3,4.4,3
2015/4/20 0:47,3.1,3,3.1,3,3.8,4
2015/4/20 0:48,3.1,3,3.1,3,4.4,4
2015/4/20 0:49,3,4,3.1,3,3.3,3
2015/4/20 0:50,2.8,4,3,3,3,4
2015/4/20 0:51,2.8,4,2.8,3,4.9,3
2015/4/20 0:52,2.8,4,2.8,3,5.1,5
2015/4/20 0:53,2.7,4,2.8,3,3.2,3
2015/4/20 0:54,2.7,4,2.7,3,3.9,4
2015/4/20 0:55,2.6,4,2.7,3,3.9,4
2015/4/20 0:56,2.5,4,2.6,3,3.9,4
2015/4/20 0:57,2.5,4,2.5,3,4.7,4
2015/4/20 0:58,2.4,4,2.5,3,4.2,3
2015/4/20 0:59,2.5,4,2.5,4,4.7,3
2015/4/20 1:00,2.5,4,2.5,4,4.2,4
2015/4/20 1:01,2.4,4,2.5,4,3.7,3
2015/4/20 1:02,2.3,4,2.4,4,3,4
2015/4/20 1:03,2.3,3,2.3,4,3.7,5
2015/4/20 1:04,2.3,3,2.3,4,4.4,4
2015/4/20 1:05,2.3,3,2.3,4,3.8,3
2015/4/20 1:06,2.4,4,2.4,4,4.4,4
2015/4/20 1:07,2.5,3,2.5,4,4.4,4
2015/4/20 1:08,2.6,3,2.6,3,4.4,3
2015/4/20 1:09,2.7,3,2.7,3,3.9,4
2015/4/20 1:10,2.6,3,2.7,3,3.2,3
2015/4/20 1:11,2.8,3,2.8,3,6.1,4
2015/4/20 1:12,2.9,3,2.9,3,4.5,3
2015/4/20 1:13,2.9,3,2.9,3,3.9,2
2015/4/20 1:14,2.9,3,2.9,3,3.9,2
2015/4/20 1:15,3,3,3,3,4.4,3
2015/4/20 1:16,3,3,3,3,5.7,3
2015/4/20 1:17,3,3,3,3,4.7,4
2015/4/20 1:18,3,3,3,3,4.9,4
2015/4/20 1:19,3,3,3,3,5,3
2015/4/20 1:20,3.1,3,3.1,3,5.2,3
2015/4/20 1:21,3.1,3,3.1,3,4.9,3
2015/4/20 1:22,3,3,3.1,3,4.9,3
2015/4/20 1:23,3.1,3,3.1,3,5.1,4
2015/4/20 1:24,3.2,3,3.2,3,5.7,4
2015/4/20 1:25,3.2,3,3.2,3,5.5,3
2015/4/20 1:26,3.1,3,3.2,3,5,3
2015/4/20 1:27,3,3,3.1,3,3.3,4
2015/4/20 1:28,2.9,3,3,3,3.7,2
2015/4/20 1:29,2.9,3,2.9,3,3.6,3
2015/4/20 1:30,2.9,3,2.9,3,4.4,3
2015/4/20 1:31,2.9,3,3,3,4.8,3
2015/4/20 1:32,2.9,3,2.9,3,3.2,3
2015/4/20 1:33,2.8,3,2.8,3,2.6,5
2015/4/20 1:34,2.8,3,2.8,3,4.5,4
2015/4/20 1:35,2.8,3,2.8,3,5,3
2015/4/20 1:36,2.8,3,2.8,3,5.2,4
2015/4/20 1:37,2.9,3,2.9,3,4.4,4
2015/4/20 1:38,3,3,3,3,3.9,3
2015/4/20 1:39,3,3,3,3,3.7,3
2015/4/20 1:40,2.9,3,3,3,3.7,3
2015/4/20 1:41,2.7,3,2.9,3,3,3
2015/4/20 1:42,2.7,3,2.7,3,3,3
2015/4/20 1:43,2.8,3,2.8,3,3.9,3
2015/4/20 1:44,2.8,3,2.8,3,5.2,3
2015/4/20 1:45,2.8,3,2.9,3,4.5,3
2015/4/20 1:46,2.7,3,2.8,3,4.1,4
2015/4/20 1:47,2.7,3,2.7,3,4.4,3
2015/4/20 1:48,2.7,3,2.7,3,4.7,3
2015/4/20 1:49,2.7,3,2.7,3,4.4,4
2015/4/20 1:50,2.7,3,2.7,3,3.3,4
2015/4/20 1:51,2.7,3,2.7,3,4.4,3
2015/4/20 1:52,2.8,3,2.8,3,4.2,3
2015/4/20 1:53,2.7,3,2.8,3,2.9,2
2015/4/20 1:54,2.6,3,2.7,3,3.5,3
2015/4/20 1:55,2.5,3,2.6,3,3.8,3
2015/4/20 1:56,2.5,3,2.5,3,4.9,3
2015/4/20 1:57,2.6,3,2.6,3,4.3,4
2015/4/20 1:58,2.6,3,2.7,3,5.1,3
2015/4/20 1:59,2.6,3,2.6,3,3.5,3
2015/4/20 2:00,2.5,3,2.6,3,4.1,3
2015/4/20 2:01,2.6,3,2.6,3,4.4,3
2015/4/20 2:02,2.5,3,2.6,3,4.3,2
2015/4/20 2:03,2.6,3,2.6,3,3.8,3
2015/4/20 2:04,2.7,3,2.7,3,4.9,4
2015/4/20 2:05,2.8,3,2.8,3,4.3,4
2015/4/20 2:06,2.7,3,2.8,3,3.6,3
2015/4/20 2:07,2.6,3,2.8,3,3.6,3
2015/4/20 2:08,2.5,2,2.6,3,3.8,3
2015/4/20 2:09,2.5,2,2.5,3,4.3,3
2015/4/20 2:10,2.5,2,2.5,3,3.9,3
2015/4/20 2:11,2.6,3,2.6,3,4.5,3
2015/4/20 2:12,2.6,3,2.6,3,4.8,4
2015/4/20 2:13,2.7,3,2.7,3,5.4,2
2015/4/20 2:14,2.7,3,2.8,3,5.5,3
2015/4/20 2:15,2.8,3,2.8,3,4.9,3
2015/4/20 2:16,3,3,3,3,5,3
2015/4/20 2:17,3.1,3,3.1,3,4.4,3
2015/4/20 2:18,3.2,3,3.2,3,4.8,1
2015/4/20 2:19,3.3,3,3.3,3,3.9,3
2015/4/20 2:20,3.4,3,3.4,3,4.1,3
2015/4/20 2:21,3.2,3,3.3,3,4.3,3
2015/4/20 2:22,3.2,3,3.2,3,4.5,3
2015/4/20 2:23,3.3,3,3.3,3,4.8,3
2015/4/20 2:24,3.2,3,3.2,3,4.7,3
2015/4/20 2:25,3.2,3,3.2,3,6,4
2015/4/20 2:26,3.1,3,3.2,3,4.7,3
2015/4/20 2:27,2.9,3,3.1,3,3.9,4
2015/4/20 2:28,2.9,3,3,3,4.1,3
2015/4/20 2:29,2.8,3,2.9,3,4.4,3
2015/4/20 2:30,2.8,3,2.8,3,3.2,3
2015/4/20 2:31,2.8,3,2.8,3,4.7,2
2015/4/20 2:32,2.7,3,2.8,3,3.9,3
2015/4/20 2:33,2.7,3,2.7,3,5.6,3
2015/4/20 2:34,2.8,3,2.8,3,5.6,4
2015/4/20 2:35,2.7,3,2.7,3,5.2,3
2015/4/20 2:36,2.8,3,2.8,3,4.7,4
2015/4/20 2:37,2.9,3,2.9,3,4.2,3
2015/4/20 2:38,2.8,3,2.9,3,3.6,2
2015/4/20 2:39,2.9,3,2.9,3,5.2,4
2015/4/20 2:40,3,3,3,3,5.4,4
2015/4/20 2:41,3,3,3.1,3,5.5,4
2015/4/20 2:42,3.1,3,3.1,3,4.2,4
2015/4/20 2:43,3.1,3,3.1,3,4.1,3
2015/4/20 2:44,3.1,3,3.1,3,4.4,3
2015/4/20 2:45,3.1,3,3.1,3,4.7,4
2015/4/20 2:46,3,3,3.1,3,4.5,5
2015/4/20 2:47,3,3,3,3,4.9,3
2015/4/20 2:48,3.2,3,3.2,3,4.9,3
2015/4/20 2:49,3.1,3,3.2,3,3.9,2
2015/4/20 2:50,3.1,3,3.1,3,6,3
2015/4/20 2:51,3.3,3,3.3,3,6.7,2
2015/4/20 2:52,3.2,3,3.3,3,3.9,3
2015/4/20 2:53,3.2,3,3.3,3,4.7,3
2015/4/20 2:54,3.2,3,3.2,3,3.8,3
2015/4/20 2:55,3,3,3.2,3,3.6,3
2015/4/20 2:56,3.1,3,3.1,3,4.4,3
2015/4/20 2:57,3,3,3.1,3,3.7,3
2015/4/20 2:58,3,3,3,3,5.1,3
2015/4/20 2:59,3.1,3,3.1,3,4.2,4
2015/4/20 3:00,2.9,3,3.1,3,5.4,3
2015/4/20 3:01,2.8,3,2.9,3,5,4
2015/4/20 3:02,2.7,3,2.8,3,3.2,5
2015/4/20 3:03,2.6,3,2.7,3,3.2,3
2015/4/20 3:04,2.6,3,2.6,3,3.5,2
2015/4/20 3:05,2.6,4,2.6,3,3.7,4
2015/4/20 3:06,2.5,3,2.6,3,3.5,3
2015/4/20 3:07,2.6,3,2.6,3,5.2,4
2015/4/20 3:08,2.5,3,2.6,3,4.4,4
2015/4/20 3:09,2.4,3,2.5,3,3.5,3
2015/4/20 3:10,2.5,3,2.5,3,4.4,4
2015/4/20 3:11,2.5,3,2.5,3,4.4,3
2015/4/20 3:12,2.5,3,2.5,3,3.5,3
2015/4/20 3:13,2.6,3,2.6,3,4.8,2
2015/4/20 3:14,2.6,3,2.6,3,4.2,3
2015/4/20 3:15,2.6,3,2.6,4,4.1,4
2015/4/20 3:16,2.6,3,2.7,3,3.1,3
2015/4/20 3:17,2.5,3,2.6,3,3.1,3
2015/4/20 3:18,2.5,3,2.5,3,3.7,3
2015/4/20 3:19,2.5,3,2.5,3,4.1,4
2015/4/20 3:20,2.5,3,2.5,3,4.1,3
2015/4/20 3:21,2.4,3,2.5,3,3.6,3
2015/4/20 3:22,2.4,3,2.4,3,3.7,3
2015/4/20 3:23,2.3,3,2.4,3,2.6,3
2015/4/20 3:24,2.2,3,2.3,3,3.1,2
2015/4/20 3:25,2.2,3,2.2,3,3.7,3
2015/4/20 3:26,2.2,3,2.2,3,4.1,4
2015/4/20 3:27,2.3,3,2.3,3,3.7,4
2015/4/20 3:28,2.3,3,2.3,3,3.6,6
2015/4/20 3:29,2.3,3,2.3,3,3.5,5
2015/4/20 3:30,2.3,3,2.3,3,3,4
2015/4/20 3:31,2.2,3,2.2,3,2.7,4
2015/4/20 3:32,2.2,3,2.2,3,3,3
2015/4/20 3:33,2.3,3,2.3,3,4.4,2
2015/4/20 3:34,2.5,3,2.5,3,5.2,3
2015/4/20 3:35,2.5,3,2.6,3,4.2,3
2015/4/20 3:36,2.5,3,2.5,3,4.5,2
2015/4/20 3:37,2.5,3,2.5,3,3.8,3
2015/4/20 3:38,2.5,3,2.5,3,3.3,3
2015/4/20 3:39,2.4,3,2.5,3,2.9,3
2015/4/20 3:40,2.5,3,2.5,3,3.6,3
2015/4/20 3:41,2.5,3,2.5,3,3.7,3
2015/4/20 3:42,2.5,3,2.5,3,4.4,3
2015/4/20 3:43,2.6,3,2.6,3,5.1,3
2015/4/20 3:44,2.5,3,2.6,3,3.5,4
2015/4/20 3:45,2.4,3,2.5,3,3.6,4
2015/4/20 3:46,2.4,3,2.5,3,3.6,5
2015/4/20 3:47,2.4,4,2.5,3,3.3,4
2015/4/20 3:48,2.5,4,2.5,3,3.5,4
2015/4/20 3:49,2.6,4,2.6,3,4.1,3
2015/4/20 3:50,2.5,3,2.6,3,2.9,4
2015/4/20 3:51,2.5,3,2.5,3,3,3
2015/4/20 3:52,2.5,3,2.5,3,4.2,3
2015/4/20 3:53,2.4,3,2.5,3,3,3
2015/4/20 3:54,2.4,3,2.4,4,3.3,4
2015/4/20 3:55,2.4,3,2.4,4,4.1,3
2015/4/20 3:56,2.5,3,2.5,4,4.9,3
2015/4/20 3:57,2.5,3,2.5,4,4.9,3
2015/4/20 3:58,2.5,3,2.5,4,4.8,3
2015/4/20 3:59,2.6,3,2.6,4,5.1,3
2015/4/20 4:00,2.8,3,2.8,3,5.2,4
2015/4/20 4:01,2.9,3,2.9,3,4.8,3
2015/4/20 4:02,2.9,3,2.9,3,3.7,3
2015/4/20 4:03,3,3,3,3,4.9,4
2015/4/20 4:04,3.1,3,3.1,3,4.1,3
2015/4/20 4:05,3.1,3,3.1,3,3.9,3
2015/4/20 4:06,3.1,3,3.1,3,5.2,3
2015/4/20 4:07,3.1,3,3.2,3,3.6,4
2015/4/20 4:08,3.1,3,3.1,3,4.9,3
2015/4/20 4:09,3,3,3.1,3,4.9,2
2015/4/20 4:10,2.9,3,3,3,3.2,4
2015/4/20 4:11,2.7,3,2.8,3,3,3
2015/4/20 4:12,2.7,3,2.7,3,3.7,3
2015/4/20 4:13,2.6,3,2.7,3,4.2,2
2015/4/20 4:14,2.5,3,2.6,3,3.8,3
2015/4/20 4:15,2.6,3,2.6,3,5,3
2015/4/20 4:16,2.6,3,2.7,3,5.6,3
2015/4/20 4:17,2.9,3,2.9,3,6.5,4
2015/4/20 4:18,2.9,3,3,3,4.8,3
2015/4/20 4:19,3,3,3,3,4.9,2
2015/4/20 4:20,3.2,3,3.2,3,5.2,3
2015/4/20 4:21,3.3,3,3.3,3,4.2,3
2015/4/20 4:22,3.3,3,3.3,3,4.3,3
2015/4/20 4:23,3.3,3,3.3,3,5.8,3
2015/4/20 4:24,3.5,3,3.5,3,5,2
2015/4/20 4:25,3.5,3,3.5,3,4.8,3
2015/4/20 4:26,3.4,3,3.5,3,4.5,3
2015/4/20 4:27,3.4,3,3.4,3,5.4,3
2015/4/20 4:28,3.2,3,3.3,3,4.5,4
2015/4/20 4:29,3.1,3,3.3,3,4.7,2
2015/4/20 4:30,3.1,3,3.1,3,4.7,3
2015/4/20 4:31,3.2,3,3.2,3,6.3,3
2015/4/20 4:32,3.3,3,3.3,3,5.5,3
2015/4/20 4:33,3.4,3,3.5,3,4.5,4
2015/4/20 4:34,3.3,3,3.4,3,5.1,3
2015/4/20 4:35,3.4,3,3.4,3,6,4
2015/4/20 4:36,3.4,3,3.4,3,5.2,4
2015/4/20 4:37,3.4,3,3.4,3,6.9,3
2015/4/20 4:38,3.6,3,3.6,3,4.7,3
2015/4/20 4:39,3.7,3,3.7,3,6,3
2015/4/20 4:40,3.8,3,3.8,3,5.7,4
2015/4/20 4:41,3.9,3,3.9,3,6.3,4
2015/4/20 4:42,3.9,3,4,3,7,5
2015/4/20 4:43,3.8,3,3.9,3,4.7,3
2015/4/20 4:44,3.9,3,3.9,3,5.7,3
2015/4/20 4:45,3.8,3,3.9,3,5.1,5
2015/4/20 4:46,3.8,4,3.9,3,4.7,5
2015/4/20 4:47,3.7,4,3.8,3,5.4,3
2015/4/20 4:48,3.8,4,3.8,3,6.1,5
2015/4/20 4:49,3.8,4,3.8,3,6.7,3
2015/4/20 4:50,3.8,4,3.8,3,6.2,3
2015/4/20 4:51,3.8,4,3.9,3,5.6,3
2015/4/20 4:52,3.6,4,3.7,3,3.7,4
2015/4/20 4:53,3.5,4,3.6,3,4.1,4
2015/4/20 4:54,3.4,4,3.5,3,3.8,4
2015/4/20 4:55,3.4,4,3.4,3,3.8,5
2015/4/20 4:56,3.3,4,3.4,4,4.2,4
2015/4/20 4:57,3.2,3,3.3,4,3.5,4
2015/4/20 4:58,3.2,3,3.2,4,6,4
2015/4/20 4:59,3.3,3,3.3,4,5.8,3
2015/4/20 5:00,3.2,3,3.3,4,7.1,4
2015/4/20 5:01,3.2,3,3.2,4,6.1,2
2015/4/20 5:02,3.2,3,3.2,4,4.9,4
2015/4/20 5:03,3.3,3,3.3,4,4.3,4
2015/4/20 5:04,3.2,3,3.2,4,4.9,3
2015/4/20 5:05,3.3,3,3.3,4,5.1,3
2015/4/20 5:06,3.3,3,3.3,4,4.9,3
2015/4/20 5:07,3.5,3,3.5,3,5.7,3
2015/4/20 5:08,3.5,3,3.5,3,5,4
2015/4/20 5:09,3.3,3,3.5,3,4.1,3
2015/4/20 5:10,3.3,3,3.4,3,5.8,2
2015/4/20 5:11,3.2,3,3.3,3,6.2,1
2015/4/20 5:12,3.5,3,3.5,3,8.1,3
2015/4/20 5:13,3.6,3,3.6,3,6.7,4
2015/4/20 5:14,3.5,3,3.6,3,4.5,3
2015/4/20 5:15,3.5,3,3.6,3,5.5,4
2015/4/20 5:16,3.4,3,3.5,3,3.9,5
2015/4/20 5:17,3.2,3,3.4,3,5.5,3
2015/4/20 5:18,3.3,3,3.3,3,9,4
2015/4/20 5:19,3.5,3,3.5,3,8.6,5
2015/4/20 5:20,3.3,3,3.4,3,4.1,3
2015/4/20 5:21,3.5,4,3.5,3,7.4,4
2015/4/20 5:22,3.2,4,3.4,3,5.4,3
2015/4/20 5:23,3.2,4,3.2,3,5.2,4
2015/4/20 5:24,3.2,4,3.2,3,4.1,5
2015/4/20 5:25,3,4,3.2,3,3,5
2015/4/20 5:26,2.9,4,3,3,2.2,5
2015/4/20 5:27,3,4,3.1,3,5.5,4
2015/4/20 5:28,3,4,3.1,3,5.7,4
2015/4/20 5:29,2.8,4,3,4,4.3,5
2015/4/20 5:30,2.8,4,2.8,4,3.5,6
2015/4/20 5:31,2.6,5,2.8,4,4.4,5
2015/4/20 5:32,2.6,5,2.6,4,4.1,4
2015/4/20 5:33,2.5,5,2.5,4,4.8,3
2015/4/20 5:34,2.4,5,2.5,4,2.2,4
2015/4/20 5:35,2.5,5,2.5,4,4.7,4
2015/4/20 5:36,2.7,5,2.7,4,4.9,6
2015/4/20 5:37,2.7,5,2.8,4,4.3,6
2015/4/20 5:38,2.7,5,2.7,4,6.3,3
2015/4/20 5:39,2.8,5,2.8,4,5.5,4
2015/4/20 5:40,2.9,5,2.9,5,6,4
2015/4/20 5:41,2.9,5,3,5,4.9,6
2015/4/20 5:42,2.9,5,2.9,5,3.6,4
2015/4/20 5:43,2.9,5,2.9,5,3.6,4
2015/4/20 5:44,3,5,3,5,3.7,5
2015/4/20 5:45,3,5,3.1,5,4.4,5
2015/4/20 5:46,2.9,5,3,5,3.3,5
2015/4/20 5:47,2.8,4,2.8,5,4.1,5
2015/4/20 5:48,2.6,5,2.8,5,3.8,5
2015/4/20 5:49,2.6,5,2.6,5,4.7,5
2015/4/20 5:50,2.5,5,2.6,5,5.6,5
2015/4/20 5:51,2.5,5,2.6,5,4.3,6
2015/4/20 5:52,2.5,4,2.5,5,2.5,5
2015/4/20 5:53,2.5,5,2.5,5,4.4,5
2015/4/20 5:54,2.4,5,2.5,5,2.9,5
2015/4/20 5:55,2.3,5,2.4,5,2.9,7
2015/4/20 5:56,2.3,4,2.3,5,3.5,3
2015/4/20 5:57,2.4,4,2.4,4,3.6,3
2015/4/20 5:58,2.5,4,2.5,5,3.7,4
2015/4/20 5:59,2.4,4,2.5,5,4.1,5
2015/4/20 6:00,2.2,4,2.4,5,3.2,5
2015/4/20 6:01,2.1,4,2.2,5,2.9,5
2015/4/20 6:02,2.2,4,2.2,4,3.2,5
2015/4/20 6:03,2,4,2.2,5,2.6,6
2015/4/20 6:04,2.3,4,2.3,4,6.1,5
2015/4/20 6:05,2.5,4,2.5,4,6.5,5
2015/4/20 6:06,2.7,5,2.7,4,5.4,5
2015/4/20 6:07,2.6,5,2.7,4,3.6,4
2015/4/20 6:08,2.6,5,2.6,4,2.9,3
2015/4/20 6:09,2.6,5,2.6,4,3.9,4
2015/4/20 6:10,2.7,4,2.7,4,4.5,3
2015/4/20 6:11,2.7,4,2.7,4,3.2,4
2015/4/20 6:12,2.7,4,2.7,4,2.5,4
2015/4/20 6:13,2.8,4,2.8,4,3.6,2
2015/4/20 6:14,2.7,4,2.8,4,4.7,5
2015/4/20 6:15,2.5,4,2.6,4,3.9,6
2015/4/20 6:16,2.4,4,2.5,4,3,5
2015/4/20 6:17,2.2,4,2.4,4,1.9,5
2015/4/20 6:18,2.2,4,2.2,4,2.4,3
2015/4/20 6:19,2.1,4,2.2,4,3.3,4
2015/4/20 6:20,2,4,2.1,4,4.1,3
2015/4/20 6:21,2.1,4,2.1,4,5,3
2015/4/20 6:22,2.2,4,2.2,4,4.9,3
2015/4/20 6:23,2.2,4,2.2,4,3.8,3
2015/4/20 6:24,2.1,3,2.2,4,3.6,3
2015/4/20 6:25,2,3,2.1,4,3.6,2
2015/4/20 6:26,2,3,2,4,1.8,2
2015/4/20 6:27,2.1,3,2.1,4,3.7,3
2015/4/20 6:28,2.2,3,2.2,4,3.1,3
2015/4/20 6:29,2.1,3,2.2,4,3,2
2015/4/20 6:30,2.2,3,2.2,4,3,1
2015/4/20 6:31,2,3,2.2,4,2.1,4
2015/4/20 6:32,1.9,3,2,4,2.5,5
2015/4/20 6:33,1.8,3,1.9,4,2,4
2015/4/20 6:34,1.9,3,1.9,3,3.7,3
2015/4/20 6:35,1.9,3,1.9,3,3.6,4
2015/4/20 6:36,1.9,3,1.9,3,3.2,2
2015/4/20 6:37,2.1,3,2.1,3,4.8,3
2015/4/20 6:38,2,3,2.1,3,3.1,2
2015/4/20 6:39,2,3,2,3,3,3
2015/4/20 6:40,1.9,4,2,3,3.2,2
2015/4/20 6:41,1.9,4,1.9,3,2.7,5
2015/4/20 6:42,2,3,2,3,3.1,4
2015/4/20 6:43,2.1,3,2.1,3,3.8,3
2015/4/20 6:44,2.1,3,2.1,3,3.5,4
2015/4/20 6:45,2,3,2.1,3,3,1
2015/4/20 6:46,2,3,2,3,3.9,5
2015/4/20 6:47,1.9,3,2,3,3.7,3
2015/4/20 6:48,2,4,2,3,3.5,5
2015/4/20 6:49,2,4,2,3,2.9,4
2015/4/20 6:50,2,4,2.1,3,3.6,5
2015/4/20 6:51,2,4,2,3,2.4,2
2015/4/20 6:52,2,3,2,3,3.3,1
2015/4/20 6:53,2,3,2,3,3.9,3
2015/4/20 6:54,2,3,2,3,4.2,1
2015/4/20 6:55,2.1,3,2.1,4,3.8,1
2015/4/20 6:56,2.1,3,2.1,4,3.2,3
2015/4/20 6:57,2.1,3,2.1,4,4.3,4
2015/4/20 6:58,2.1,2,2.1,4,3.7,4
2015/4/20 6:59,2.2,2,2.2,2,3.6,3
2015/4/20 7:00,2.2,2,2.2,2,3.1,3
2015/4/20 7:01,2.4,2,2.4,2,5.2,4
2015/4/20 7:02,2.6,3,2.6,2,6.3,3
2015/4/20 7:03,2.7,3,2.7,3,5.1,5
2015/4/20 7:04,2.8,3,2.8,3,3.8,5
2015/4/20 7:05,2.7,3,2.8,3,2.7,4
2015/4/20 7:06,2.7,3,2.7,3,2.2,2
2015/4/20 7:07,2.6,3,2.7,3,3.2,2
2015/4/20 7:08,2.6,3,2.6,3,4.2,3
2015/4/20 7:09,2.7,3,2.7,3,4.8,3
2015/4/20 7:10,2.7,3,2.7,3,5,9
2015/4/20 7:11,2.7,3,2.7,3,4.7,2
2015/4/20 7:12,2.5,3,2.7,3,4.2,3
2015/4/20 7:13,2.4,3,2.5,3,3.2,2
2015/4/20 7:14,2.4,3,2.4,3,3.7,3
2015/4/20 7:15,2.5,3,2.5,3,3.8,3
2015/4/20 7:16,2.6,3,2.6,3,3.8,3
2015/4/20 7:17,2.5,3,2.6,3,2.6,1
2015/4/20 7:18,2.5,3,2.5,3,3.1,3
2015/4/20 7:19,2.4,3,2.5,3,3.9,4
2015/4/20 7:20,2.4,3,2.4,3,3.6,3
2015/4/20 7:21,2.3,3,2.4,3,3.2,5
2015/4/20 7:22,2.2,3,2.2,3,3.5,3
2015/4/20 7:23,2.3,3,2.3,3,3.5,3
2015/4/20 7:24,2.3,3,2.3,3,3.5,3
2015/4/20 7:25,2.3,3,2.3,3,6.1,6
2015/4/20 7:26,2.4,4,2.4,3,4.1,7
2015/4/20 7:27,2.5,4,2.5,3,4.3,6
2015/4/20 7:28,2.6,4,2.6,4,4.3,4
2015/4/20 7:29,2.6,4,2.6,4,3.9,3
2015/4/20 7:30,2.5,4,2.6,4,3.5,6
2015/4/20 7:31,2.6,5,2.6,4,3.3,7
2015/4/20 7:32,2.5,5,2.6,4,3,6
2015/4/20 7:33,2.3,5,2.5,4,1,5
2015/4/20 7:34,2.1,5,2.3,4,1,16
2015/4/20 7:35,1.9,5,2.1,4,1.5,7
2015/4/20 7:36,1.7,5,1.9,4,3.8,10
2015/4/20 7:37,1.7,5,1.7,4,5.5,8
2015/4/20 7:38,1.5,6,1.6,4,2.2,6
2015/4/20 7:39,1.7,6,1.7,4,4.7,5
2015/4/20 7:40,1.7,6,1.7,5,3.9,5
2015/4/20 7:41,1.9,5,1.9,5,6.2,5
2015/4/20 7:42,2,5,2,5,4.3,6
2015/4/20 7:43,2.2,5,2.2,5,4.7,6
2015/4/20 7:44,2.5,5,2.5,5,7.1,4
2015/4/20 7:45,2.8,6,2.8,6,6.4,8
2015/4/20 7:46,3,5,3,5,6.3,6
2015/4/20 7:47,3.1,5,3.1,5,5.8,2
2015/4/20 7:48,3.4,5,3.4,5,8.5,4
2015/4/20 7:49,3.5,5,3.5,5,7.2,3
2015/4/20 7:50,3.4,5,3.4,5,4.8,7
2015/4/20 7:51,3.3,5,3.4,5,4.9,6
2015/4/20 7:52,3.3,5,3.3,5,4.5,5
2015/4/20 7:53,3.4,5,3.4,5,4.9,3
2015/4/20 7:54,3.2,5,3.4,5,3.3,5
2015/4/20 7:55,3,5,3.2,5,3.2,3
2015/4/20 7:56,2.9,5,3,5,3.5,4
2015/4/20 7:57,2.9,5,2.9,5,5.5,3
2015/4/20 7:58,3,5,3,5,6,6
2015/4/20 7:59,2.9,5,3,5,5.5,6
2015/4/20 8:00,2.9,5,2.9,5,4.9,5
2015/4/20 8:01,2.9,5,2.9,5,5,3
2015/4/20 8:02,2.9,5,2.9,5,4.8,5
2015/4/20 8:03,3,5,3,5,6.2,6
2015/4/20 8:04,3.2,5,3.2,5,5.2,6
2015/4/20 8:05,3.2,5,3.2,5,3.3,7
2015/4/20 8:06,3.1,5,3.2,5,4.2,3
2015/4/20 8:07,3.1,5,3.1,5,5.4,5
2015/4/20 8:08,3.1,5,3.1,5,7.5,5
2015/4/20 8:09,3,5,3.1,5,5.6,5
2015/4/20 8:10,3.1,5,3.1,5,3.9,6
2015/4/20 8:11,3.1,5,3.1,5,4.8,6
2015/4/20 8:12,3,5,3.1,5,3.7,6
2015/4/20 8:13,2.9,5,3,5,5.8,4
2015/4/20 8:14,3,5,3,5,6.8,4
2015/4/20 8:15,3.3,5,3.3,5,6.4,5
2015/4/20 8:16,3.3,5,3.3,5,4.1,4
2015/4/20 8:17,3.2,5,3.3,5,4.1,4
2015/4/20 8:18,3.1,5,3.3,5,5.2,3
2015/4/20 8:19,3.2,5,3.2,5,7.2,3
2015/4/20 8:20,3.4,5,3.4,5,5.6,4
2015/4/20 8:21,3.4,5,3.4,5,5.7,5
2015/4/20 8:22,3.3,4,3.4,5,2.7,5
2015/4/20 8:23,3.3,4,3.3,5,5.5,6
2015/4/20 8:24,3.2,5,3.3,5,4.2,5
2015/4/20 8:25,3.2,4,3.2,5,6.9,4
2015/4/20 8:26,3.3,4,3.3,5,6.8,4
2015/4/20 8:27,3.4,5,3.4,5,4.7,4
2015/4/20 8:28,3.4,5,3.4,5,4.3,3
2015/4/20 8:29,3.3,5,3.4,5,4.3,5
2015/4/20 8:30,3.3,5,3.3,5,5.6,4
2015/4/20 8:31,3.2,5,3.3,4,4.3,4
2015/4/20 8:32,3.3,5,3.3,4,4.8,5
2015/4/20 8:33,3.3,4,3.3,4,3.5,2
2015/4/20 8:34,3.2,4,3.3,4,2.9,3
2015/4/20 8:35,3.1,4,3.1,4,6.1,4
2015/4/20 8:36,2.9,4,3.1,4,5.6,4
2015/4/20 8:37,2.8,4,2.9,5,4.5,5
2015/4/20 8:38,2.7,4,2.8,5,2.4,5
2015/4/20 8:39,2.5,4,2.7,5,2.2,4
2015/4/20 8:40,2.2,4,2.5,5,2.6,4
2015/4/20 8:41,2.1,4,2.2,5,4.2,4
2015/4/20 8:42,2.2,4,2.2,5,6.7,4
2015/4/20 8:43,2.3,4,2.3,4,5.8,5
2015/4/20 8:44,2.5,4,2.5,4,6.9,5
2015/4/20 8:45,2.7,5,2.7,4,5.8,5
2015/4/20 8:46,2.8,5,2.8,4,7,6
2015/4/20 8:47,3,5,3,5,7.4,6
2015/4/20 8:48,3.3,5,3.3,5,6.4,5
2015/4/20 8:49,3.4,5,3.4,5,4.8,4
2015/4/20 8:50,3.4,5,3.4,5,3.9,3
2015/4/20 8:51,3.6,5,3.6,5,5.4,3
2015/4/20 8:52,3.7,5,3.7,5,6.1,4
2015/4/20 8:53,3.4,5,3.7,5,3.5,6
2015/4/20 8:54,3.3,5,3.4,5,4.4,4
2015/4/20 8:55,3.3,4,3.3,5,4.8,3
2015/4/20 8:56,3.1,4,3.3,5,4.9,5
2015/4/20 8:57,2.9,4,3.1,5,3.1,5
2015/4/20 8:58,2.6,4,2.9,5,2.1,4
2015/4/20 8:59,2.6,4,2.6,5,4.9,4
2015/4/20 9:00,2.7,4,2.7,5,4.9,5
2015/4/20 9:01,2.7,4,2.8,5,4.2,5
2015/4/20 9:02,2.6,4,2.7,5,3.8,4
2015/4/20 9:03,2.8,4,2.8,5,4.1,5
2015/4/20 9:04,2.7,4,2.8,5,3,3
2015/4/20 9:05,2.5,4,2.7,4,2.7,2
2015/4/20 9:06,2.5,4,2.5,4,4.9,4
2015/4/20 9:07,2.6,4,2.6,4,4.2,3
2015/4/20 9:08,2.7,4,2.7,4,3.5,4
2015/4/20 9:09,2.6,4,2.7,4,3.5,5
2015/4/20 9:10,2.5,4,2.6,4,2.5,4
2015/4/20 9:11,2.4,4,2.5,4,3.3,3
2015/4/20 9:12,2.4,4,2.4,4,4.9,5
2015/4/20 9:13,2.4,4,2.4,4,3.8,5
2015/4/20 9:14,2.4,4,2.4,4,3.6,4
2015/4/20 9:15,2.6,4,2.6,4,4.1,4
2015/4/20 9:16,2.5,4,2.6,4,4.2,5
2015/4/20 9:17,2.5,4,2.6,4,4.5,4
2015/4/20 9:18,2.4,4,2.5,4,2.4,2
2015/4/20 9:19,2.4,4,2.4,4,2.7,1
2015/4/20 9:20,2.5,3,2.5,4,3,2
2015/4/20 9:21,2.4,3,2.5,4,3.8,3
2015/4/20 9:22,2.3,3,2.4,4,3,3
2015/4/20 9:23,2.2,3,2.3,4,3.5,2
2015/4/20 9:24,2.3,3,2.3,4,4.9,3
2015/4/20 9:25,2.3,3,2.3,4,4.7,6
2015/4/20 9:26,2.2,3,2.3,4,2.2,4
2015/4/20 9:27,2.1,3,2.2,4,2,4
2015/4/20 9:28,2.1,3,2.1,3,3.9,7
2015/4/20 9:29,2.1,4,2.1,3,2.7,8
2015/4/20 9:30,2.1,4,2.1,3,3.5,2
2015/4/20 9:31,2.2,4,2.3,3,4.3,3
2015/4/20 9:32,2.2,4,2.2,3,2.4,4
2015/4/20 9:33,2.2,4,2.2,3,3.9,3
2015/4/20 9:34,2.1,4,2.2,3,4.1,2
2015/4/20 9:35,2.1,4,2.2,3,4.1,3
2015/4/20 9:36,2.2,4,2.2,4,3.3,6
2015/4/20 9:37,2.2,4,2.3,4,2.5,5
2015/4/20 9:38,2.3,4,2.3,4,3.1,5
2015/4/20 9:39,2.4,4,2.4,4,4.1,6
2015/4/20 9:40,2.4,4,2.4,4,4.2,6
2015/4/20 9:41,2.3,4,2.4,4,3,6
2015/4/20 9:42,2.4,4,2.4,4,3.1,3
2015/4/20 9:43,2.4,4,2.4,4,2.9,3
2015/4/20 9:44,2.2,5,2.3,4,2.1,5
2015/4/20 9:45,2.2,5,2.2,4,3.2,5
2015/4/20 9:46,2.1,5,2.2,4,2.6,6
2015/4/20 9:47,2.1,5,2.1,4,2.6,4
2015/4/20 9:48,2,5,2.1,4,2.6,4
2015/4/20 9:49,1.9,4,2,4,1.9,4
2015/4/20 9:50,1.8,4,1.9,4,2.1,3
2015/4/20 9:51,1.7,4,1.8,5,1.9,4
2015/4/20 9:52,1.6,4,1.6,4,1.5,5
2015/4/20 9:53,1.4,4,1.5,4,1,5
2015/4/20 9:54,1.4,4,1.4,5,1.6,4
2015/4/20 9:55,1.3,4,1.4,5,3.3,3
2015/4/20 9:56,1.3,4,1.3,5,3,4
2015/4/20 9:57,1.3,4,1.3,5,1.9,2
2015/4/20 9:58,1.2,3,1.3,5,3.7,16
2015/4/20 9:59,1.2,3,1.2,4,2.4,2
2015/4/20 10:00,1.3,3,1.3,4,3.5,2
2015/4/20 10:01,1.3,3,1.3,4,3.7,3
2015/4/20 10:02,1.5,3,1.5,4,3,4
2015/4/20 10:03,1.6,3,1.6,3,2.6,3
2015/4/20 10:04,1.7,3,1.7,3,3.1,2
2015/4/20 10:05,1.8,3,1.8,3,3,4
2015/4/20 10:06,1.8,3,1.8,3,3.1,3
2015/4/20 10:07,2,3,2,3,4.2,3
2015/4/20 10:08,2.1,3,2.1,3,4.3,3
2015/4/20 10:09,2.2,3,2.2,3,4.5,2
2015/4/20 10:10,2.2,3,2.3,3,3.7,3
2015/4/20 10:11,2.3,3,2.3,3,4.4,3
2015/4/20 10:12,2.3,3,2.3,3,2.9,3
2015/4/20 10:13,2.3,3,2.3,3,3.6,3
2015/4/20 10:14,2.3,2,2.4,3,3,3
2015/4/20 10:15,2.2,2,2.3,3,2,1
2015/4/20 10:16,2.1,2,2.2,3,3.3,3
2015/4/20 10:17,2.1,2,2.1,3,3,3
2015/4/20 10:18,2.1,2,2.1,3,3,3
2015/4/20 10:19,2,2,2.1,3,2.2,3
2015/4/20 10:20,1.9,2,2,3,1.5,16
2015/4/20 10:21,1.9,2,1.9,3,2.6,3
2015/4/20 10:22,1.9,3,1.9,3,3.5,3
2015/4/20 10:23,1.8,3,1.9,3,2.4,4
2015/4/20 10:24,1.8,3,1.8,2,2.9,3
2015/4/20 10:25,1.8,3,1.8,2,2.7,3
2015/4/20 10:26,1.9,3,1.9,2,3.9,3
2015/4/20 10:27,1.9,3,2,2,3.6,4
2015/4/20 10:28,2,3,2,2,4.4,3
2015/4/20 10:29,2.1,3,2.1,3,3.7,3
2015/4/20 10:30,2.3,3,2.3,3,4.3,4
2015/4/20 10:31,2.4,3,2.4,3,4.1,3
2015/4/20 10:32,2.4,3,2.4,3,3.2,3
2015/4/20 10:33,2.5,3,2.5,3,3.8,3
2015/4/20 10:34,2.5,3,2.5,3,2.9,3
2015/4/20 10:35,2.5,3,2.5,3,3.7,4
2015/4/20 10:36,2.5,3,2.6,3,3.6,2
2015/4/20 10:37,2.5,3,2.5,3,3.3,3
2015/4/20 10:38,2.4,3,2.5,3,3.5,2
2015/4/20 10:39,2.3,3,2.4,3,3.3,3
2015/4/20 10:40,2.3,3,2.4,3,3.2,4
2015/4/20 10:41,2.2,3,2.3,3,2.5,3
2015/4/20 10:42,2.1,3,2.2,3,2.4,3
2015/4/20 10:43,2.1,3,2.1,3,3.2,3
2015/4/20 10:44,2,3,2.1,3,3.1,3
2015/4/20 10:45,2.1,3,2.1,3,3.9,3
2015/4/20 10:46,2.1,3,2.1,3,3.5,4
2015/4/20 10:47,2.2,3,2.2,3,3.7,2
2015/4/20 10:48,2.2,3,2.2,3,3,3
2015/4/20 10:49,2.1,3,2.2,3,2.9,3
2015/4/20 10:50,2.1,3,2.1,3,3.3,3
2015/4/20 10:51,2.2,3,2.2,3,4.2,3
2015/4/20 10:52,2.3,3,2.3,3,3.9,2
2015/4/20 10:53,2.2,3,2.3,3,2.6,3
2015/4/20 10:54,2.2,3,2.2,3,2.6,2
2015/4/20 10:55,2,3,2.2,3,2.5,4
2015/4/20 10:56,2.1,3,2.1,3,3.3,3
2015/4/20 10:57,2,2,2.1,3,2.2,2
2015/4/20 10:58,2,2,2,3,3.2,3
2015/4/20 10:59,2,2,2,3,3.2,3
2015/4/20 11:00,2,2,2,3,2.2,3
2015/4/20 11:01,1.9,2,1.9,3,2.7,3
2015/4/20 11:02,1.8,2,1.9,3,2.7,3
2015/4/20 11:03,1.8,3,1.8,3,2.9,3
2015/4/20 11:04,1.8,3,1.9,3,2.6,4
2015/4/20 11:05,1.8,3,1.9,2,3,2
2015/4/20 11:06,1.8,3,1.8,3,2.2,2
2015/4/20 11:07,1.8,3,1.8,2,3.1,2
2015/4/20 11:08,1.9,3,1.9,2,3.9,3
2015/4/20 11:09,1.8,3,1.9,2,3,4
2015/4/20 11:10,1.9,3,1.9,2,3.1,3
2015/4/20 11:11,1.9,3,2,3,3,3
2015/4/20 11:12,2,3,2,3,3.2,3
2015/4/20 11:13,1.9,3,2,3,2.2,3
2015/4/20 11:14,1.9,3,1.9,3,2.4,3
2015/4/20 11:15,1.9,3,1.9,3,3.8,2
2015/4/20 11:16,1.9,3,1.9,3,2.7,3
2015/4/20 11:17,1.8,3,1.9,3,2.5,3
2015/4/20 11:18,1.7,3,1.9,3,2.7,3
2015/4/20 11:19,1.8,3,1.8,3,2.2,3
2015/4/20 11:20,1.7,3,1.8,3,2.2,3
2015/4/20 11:21,1.6,2,1.7,3,1.5,1
2015/4/20 11:22,1.5,2,1.6,3,2.6,3
2015/4/20 11:23,1.6,2,1.6,3,2,3
2015/4/20 11:24,1.6,2,1.6,3,1.9,3
2015/4/20 11:25,1.5,2,1.6,3,1.8,2
2015/4/20 11:26,1.4,2,1.5,3,2.2,1
2015/4/20 11:27,1.4,2,1.4,3,2.1,3
2015/4/20 11:28,1.3,2,1.4,3,1.8,2
2015/4/20 11:29,1.3,2,1.3,3,2.7,3
2015/4/20 11:30,1.3,2,1.3,3,2.1,4
2015/4/20 11:31,1.3,3,1.3,2,2.1,3
2015/4/20 11:32,1.3,2,1.3,2,2,3
2015/4/20 11:33,1.3,2,1.3,2,2.7,3
2015/4/20 11:34,1.3,2,1.3,2,1.6,3
2015/4/20 11:35,1.3,2,1.3,2,1.5,3
2015/4/20 11:36,1.3,2,1.3,2,2.2,3
2015/4/20 11:37,1.3,2,1.3,2,2.2,2
2015/4/20 11:38,1.4,2,1.4,2,2.7,2
2015/4/20 11:39,1.4,2,1.4,2,2.1,3
2015/4/20 11:40,1.4,2,1.4,2,1.4,2
2015/4/20 11:41,1.3,2,1.4,2,1.8,2
2015/4/20 11:42,1.3,2,1.3,2,2.6,3
2015/4/20 11:43,1.3,2,1.3,2,2.5,1
2015/4/20 11:44,1.4,2,1.4,2,3,3
2015/4/20 11:45,1.6,2,1.6,2,3,3
2015/4/20 11:46,1.7,2,1.7,2,2.9,3
2015/4/20 11:47,1.7,3,1.7,2,3,3
2015/4/20 11:48,1.7,2,1.7,2,2.1,2
2015/4/20 11:49,1.7,2,1.7,2,2.7,2